Hamilton, OH

2:55 PM EDT on July 25, 2017 (GMT -0400)
Butler County Regional

Weather History for KHAO - April, 2013

Change the Weather History Date:

Saturday, April 6, 2013

  Actual Average (KLUK) Record (KLUK)
Temperature  
Mean Temperature 51 °F -  
Max Temperature 69 °F 60 °F 80 °F (1967)
Min Temperature 33 °F 39 °F 24 °F (1982)
Degree Days  
Heating Degree Days 14    
Growing Degree Days 1 (Base 50)    
Moisture  
Dew Point 28 °F    
Average Humidity 43    
Maximum Humidity 78    
Minimum Humidity 24    
Precipitation  
Precipitation 0.00 in - - ()
Sea Level Pressure  
Sea Level Pressure 30.10 in    
Wind  
Wind Speed 5 mph (SE)    
Max Wind Speed 10 mph    
Max Gust Speed 18 mph    
Visibility 10 miles    
Events      
Averages and records for this station are not official NWS values.
T = Trace of Precipitation, MM = Missing Value Source: NWS Daily Summary

Daily Weather History Graph

Daily Weather History Graph

Search for Another Location

Airport or City:

Trip Planner

Search our weather history database for the weather conditions in past years. The results will help you decide how hot, cold, wet, or windy it might be!

Date:

Astronomy

Apr. 06, 2013 Rise Set
Actual Time 7:14 AM EDT 8:07 PM EDT
Civil Twilight 6:47 AM EDT 8:34 PM EDT
Nautical Twilight 6:14 AM EDT 9:06 PM EDT
Astronomical Twilight 5:41 AM EDT 9:40 PM EDT
Moon 4:56 AM EDT (4/6) 4:35 PM EDT (4/6)
Length of Visible Light 13h 47m
Length of Day
12h 52m
Waning Crescent, 15% of the Moon is Illuminated
Apr 6
Waning Crescent
Apr 10
New
Apr 18
First Quarter
Apr 25
Full
May 2
Last Quarter

Hourly Weather History & Observations

Time (EDT) Temp. Windchill Dew Point Humidity Pressure Visibility Wind Dir Wind Speed Gust Speed Precip Events Conditions
12:53 AM 35.1 °F - 27.0 °F 72% 30.16 in 10.0 mi Calm Calm - N/A   Clear
1:53 AM 33.1 °F - 27.0 °F 78% 30.17 in 10.0 mi Calm Calm - N/A   Clear
2:53 AM 34.0 °F 28.0 °F 25.0 °F 70% 30.18 in 10.0 mi ENE 6.9 mph - N/A   Clear
3:53 AM 35.1 °F 30.1 °F 25.0 °F 67% 30.18 in 10.0 mi East 5.8 mph - N/A   Clear
4:53 AM 37.0 °F 32.4 °F 23.0 °F 57% 30.18 in 10.0 mi ESE 5.8 mph - N/A   Clear
5:53 AM 36.0 °F 30.3 °F 26.1 °F 67% 30.19 in 10.0 mi East 6.9 mph - N/A   Clear
6:53 AM 36.0 °F 31.1 °F 24.1 °F 62% 30.22 in 10.0 mi East 5.8 mph - N/A   Clear
7:53 AM 36.0 °F 32.1 °F 24.1 °F 62% 30.24 in 10.0 mi East 4.6 mph - N/A   Clear
8:53 AM 42.1 °F 36.6 °F 23.0 °F 47% 30.23 in 10.0 mi ESE 9.2 mph - N/A   Clear
9:53 AM 46.9 °F - 21.0 °F 36% 30.23 in 10.0 mi ESE 9.2 mph - N/A   Clear
10:53 AM 50.0 °F - 21.0 °F 32% 30.21 in 10.0 mi SSE 6.9 mph - N/A   Partly Cloudy
11:53 AM 54.0 °F - 23.0 °F 30% 30.18 in 10.0 mi Variable 6.9 mph - N/A   Scattered Clouds
12:53 PM 59.0 °F - 24.1 °F 26% 30.16 in 10.0 mi Variable 5.8 mph 17.3 mph N/A   Partly Cloudy
1:53 PM 64.0 °F - 27.0 °F 25% 30.12 in 10.0 mi South 8.1 mph - N/A   Clear
2:53 PM 64.0 °F - 28.0 °F 26% 30.09 in 10.0 mi Variable 5.8 mph - N/A   Clear
3:53 PM 66.9 °F - 28.9 °F 24% 30.05 in 10.0 mi SSW 8.1 mph 18.4 mph N/A   Clear
4:53 PM 69.1 °F - 30.9 °F 24% 30.00 in 10.0 mi SSW 10.4 mph 16.1 mph N/A   Clear
5:53 PM 66.9 °F - 32.0 °F 27% 29.97 in 10.0 mi SSE 10.4 mph 16.1 mph N/A   Clear
6:53 PM 66.0 °F - 34.0 °F 30% 29.96 in 10.0 mi SSE 5.8 mph - N/A   Clear
7:53 PM 66.0 °F - 35.1 °F 32% 29.93 in 10.0 mi Variable 6.9 mph - N/A   Clear
8:53 PM 64.9 °F - 35.1 °F 33% 29.93 in 10.0 mi Variable 4.6 mph - N/A   Clear
9:53 PM 63.0 °F - 36.0 °F 37% 29.94 in 10.0 mi SSE 3.5 mph - N/A   Clear
10:53 PM 62.1 °F - 36.0 °F 38% 29.93 in 10.0 mi SSE 4.6 mph - N/A   Clear
11:53 PM 62.1 °F - 35.1 °F 37% 29.92 in 10.0 mi South 5.8 mph - N/A   Clear